Weather History for Peru, IL

Change the Weather History Date:

Saturday, November 17, 2012

  Actual Average Record
Temperature  
Mean Temperature 42 °F -  
Max Temperature 54 °F 48 °F 70 °F (1963)
Min Temperature 30 °F 31 °F 12 °F (2005)
Degree Days  
Heating Degree Days 23    
Moisture  
Dew Point 31 °F    
Average Humidity 68    
Maximum Humidity 88    
Minimum Humidity 42    
Precipitation  
Precipitation 0.00 in - - ()
Sea Level Pressure  
Sea Level Pressure 30.47 in    
Wind  
Wind Speed 5 mph (SE)    
Max Wind Speed 14 mph    
Max Gust Speed -    
Visibility 8 miles    
Events      
Averages and records for this station are not official NWS values.
T = Trace of Precipitation, MM = Missing Value Source: NWS Daily Summary

Daily Weather History Graph

Daily Weather History Graph

Search for Another Location

Airport:

Trip Planner

Search our weather history database for the weather conditions in past years. The results will help you decide how hot, cold, wet, or windy it might be!

Date:

Astronomy

Nov. 17, 2012 Rise Set
Actual Time 6:47 AM CST 4:35 PM CST
Civil Twilight 6:18 AM CST 5:04 PM CST
Nautical Twilight 5:44 AM CST 5:38 PM CST
Astronomical Twilight 5:11 AM CST 6:11 PM CST
Moon 10:32 AM CST (11/17) 8:45 PM CST (11/17)
Length of Visible Light 10h 46m
Length of Day
9h 47m
Waxing Crescent, 20% of the Moon is Illuminated
Nov 17
Waxing Crescent
Nov 20
First Quarter
Nov 28
Full
Dec 6
Last Quarter
Dec 13
New

Hourly Weather History & Observations

Time (CST) Temp. Windchill Dew Point Humidity Pressure Visibility Wind Dir Wind Speed Gust Speed Precip Events Conditions
12:15 AM 36.9 °F 32.2 °F 29.3 °F 74% 30.46 in 10.0 mi South 5.8 mph - N/A   Clear
12:35 AM 36.9 °F - 29.7 °F 75% 30.47 in 10.0 mi Calm Calm - N/A   Clear
12:55 AM 37.4 °F - 29.1 °F 72% 30.48 in 10.0 mi Calm Calm - N/A   Clear
1:15 AM 35.1 °F - 28.6 °F 77% 30.48 in 10.0 mi Calm Calm - N/A   Clear
1:35 AM 34.5 °F - 28.8 °F 79% 30.49 in 10.0 mi Calm Calm - N/A   Clear
1:55 AM 35.2 °F 31.2 °F 28.9 °F 78% 30.49 in 10.0 mi South 4.6 mph - N/A   Clear
2:15 AM 34.3 °F 30.2 °F 28.6 °F 79% 30.49 in 10.0 mi SSE 4.6 mph - N/A   Clear
2:35 AM 36.9 °F 31.4 °F 28.8 °F 72% 30.49 in 10.0 mi SSE 6.9 mph - N/A   Clear
2:55 AM 34.3 °F 30.2 °F 28.2 °F 78% 30.49 in 7.0 mi South 4.6 mph - N/A   Clear
3:15 AM 35.6 °F 30.7 °F 28.6 °F 76% 30.49 in 10.0 mi SSE 5.8 mph - N/A   Clear
3:35 AM 35.8 °F 31.9 °F 28.4 °F 75% 30.49 in 10.0 mi SE 4.6 mph - N/A   Clear
3:55 AM 32.2 °F - 27.0 °F 81% 30.50 in 7.0 mi Calm Calm - N/A   Clear
4:15 AM 30.7 °F - 26.1 °F 83% 30.50 in 7.0 mi Calm Calm - N/A   Clear
4:35 AM 32.0 °F 26.4 °F 28.0 °F 85% 30.50 in 7.0 mi ESE 5.8 mph - N/A   Clear
4:55 AM 32.0 °F 27.5 °F 27.1 °F 82% 30.50 in 7.0 mi ESE 4.6 mph - N/A   Clear
5:15 AM 32.2 °F - 27.1 °F 82% 30.51 in 7.0 mi Calm Calm - N/A   Clear
5:35 AM 30.0 °F 24.1 °F 26.8 °F 88% 30.50 in 7.0 mi ESE 5.8 mph - N/A   Clear
5:55 AM 31.8 °F 26.2 °F 27.3 °F 83% 30.50 in 7.0 mi SE 5.8 mph - N/A   Clear
6:15 AM 31.6 °F 27.0 °F 27.3 °F 84% 30.51 in 7.0 mi ESE 4.6 mph - N/A   Clear
6:35 AM 33.1 °F 28.7 °F 27.9 °F 81% 30.51 in 7.0 mi SE 4.6 mph - N/A   Clear
6:55 AM 33.1 °F 26.9 °F 27.7 °F 81% 30.51 in 5.0 mi ESE 6.9 mph - N/A   Haze
7:15 AM 32.2 °F 28.9 °F 27.5 °F 83% 30.52 in 5.0 mi ESE 3.5 mph - N/A   Haze
7:35 AM 32.0 °F - 27.7 °F 84% 30.53 in 4.0 mi Calm Calm - N/A   Clear
7:55 AM 33.3 °F - 28.9 °F 84% 30.53 in 4.0 mi Calm Calm - N/A   Clear
8:15 AM 35.6 °F 31.7 °F 30.2 °F 81% 30.53 in 5.0 mi SE 4.6 mph - N/A   Haze
8:35 AM 37.8 °F 33.3 °F 30.6 °F 75% 30.53 in 5.0 mi SE 5.8 mph - N/A   Haze
8:55 AM 39.6 °F 36.3 °F 31.5 °F 73% 30.53 in 5.0 mi SE 4.6 mph - N/A   Haze
9:15 AM 40.5 °F 35.8 °F 31.6 °F 71% 30.53 in 5.0 mi SSE 6.9 mph - N/A   Haze
9:35 AM 42.1 °F 40.2 °F 32.0 °F 67% 30.54 in 5.0 mi South 3.5 mph - N/A   Haze
9:55 AM 43.5 °F 40.9 °F 32.9 °F 66% 30.54 in 5.0 mi South 4.6 mph - N/A   Haze
10:15 AM 45.0 °F 41.8 °F 33.8 °F 65% 30.53 in 5.0 mi SSE 5.8 mph - N/A   Haze
10:35 AM 47.3 °F - 34.3 °F 61% 30.53 in 7.0 mi South 9.2 mph - N/A   Clear
11:55 AM 51.1 °F - 35.4 °F 55% 30.48 in 7.0 mi South 12.7 mph - N/A   Clear
12:15 PM 52.2 °F - 35.1 °F 52% 30.48 in 7.0 mi South 9.2 mph - N/A   Clear
12:35 PM 53.2 °F - 34.9 °F 50% 30.47 in 7.0 mi SSE 8.1 mph - N/A   Clear
12:55 PM 54.0 °F - 33.8 °F 46% 30.46 in 10.0 mi South 10.4 mph - N/A   Clear
1:15 PM 54.7 °F - 33.8 °F 45% 30.46 in 10.0 mi SSE 9.2 mph - N/A   Clear
1:35 PM 54.7 °F - 33.8 °F 45% 30.45 in 10.0 mi SSE 9.2 mph - N/A   Clear
1:55 PM 54.7 °F - 33.6 °F 45% 30.45 in 10.0 mi South 8.1 mph - N/A   Clear
2:15 PM 54.7 °F - 32.2 °F 42% 30.44 in 10.0 mi South 9.2 mph - N/A   Clear
2:35 PM 54.7 °F - 32.4 °F 43% 30.45 in 10.0 mi SSE 9.2 mph - N/A   Clear
2:55 PM 54.7 °F - 32.2 °F 42% 30.44 in 10.0 mi SE 8.1 mph - N/A   Clear
3:15 PM 54.7 °F - 32.5 °F 43% 30.44 in 10.0 mi SE 11.5 mph - N/A   Clear
3:35 PM 54.1 °F - 33.1 °F 45% 30.44 in 10.0 mi SE 8.1 mph - N/A   Clear
3:55 PM 52.9 °F - 32.9 °F 47% 30.44 in 10.0 mi SE 6.9 mph - N/A   Clear
4:15 PM 51.1 °F - 32.7 °F 50% 30.44 in 10.0 mi SE 8.1 mph - N/A   Clear
4:35 PM 49.8 °F - 32.4 °F 51% 30.43 in 10.0 mi SE 9.2 mph - N/A   Clear
4:55 PM 48.9 °F - 33.1 °F 54% 30.43 in 10.0 mi SE 10.4 mph - N/A   Clear
5:15 PM 48.4 °F - 34.0 °F 58% 30.42 in 10.0 mi SE 10.4 mph - N/A   Clear
5:35 PM 47.8 °F - 34.2 °F 59% 30.42 in 10.0 mi SE 12.7 mph - N/A   Clear
5:55 PM 47.8 °F - 34.2 °F 59% 30.42 in 10.0 mi SE 13.8 mph - N/A   Clear
6:15 PM 46.9 °F - 34.0 °F 61% 30.42 in 10.0 mi SE 11.5 mph - N/A   Clear
6:35 PM 46.4 °F 40.7 °F 34.0 °F 62% 30.41 in 10.0 mi SE 12.7 mph - N/A   Clear
6:55 PM 46.4 °F 41.1 °F 34.0 °F 62% 30.41 in 10.0 mi SE 11.5 mph - N/A   Clear
7:15 PM 45.3 °F 39.7 °F 33.8 °F 64% 30.42 in 10.0 mi SE 11.5 mph - N/A   Clear
7:35 PM 45.3 °F 40.1 °F 33.8 °F 64% 30.43 in 10.0 mi SE 10.4 mph - N/A   Clear
7:55 PM 44.2 °F 41.0 °F 33.3 °F 65% 30.43 in 10.0 mi SE 5.8 mph - N/A   Clear
8:15 PM 39.7 °F - 32.0 °F 74% 30.44 in 7.0 mi Calm Calm - N/A   Clear
8:35 PM 41.9 °F 39.0 °F 33.1 °F 71% 30.44 in 10.0 mi ESE 4.6 mph - N/A   Clear
8:55 PM 39.6 °F - 32.2 °F 75% 30.44 in 7.0 mi Calm Calm - N/A   Clear
9:15 PM 39.9 °F 34.5 °F 32.7 °F 75% 30.44 in 7.0 mi ESE 8.1 mph - N/A   Clear
9:35 PM 42.6 °F 39.0 °F 32.5 °F 68% 30.44 in 10.0 mi SE 5.8 mph - N/A   Clear
9:55 PM 37.4 °F 34.9 °F 30.4 °F 76% 30.44 in 7.0 mi SSE 3.5 mph - N/A   Clear
10:15 PM 38.3 °F 34.8 °F 31.8 °F 77% 30.44 in 7.0 mi SE 4.6 mph - N/A   Clear
10:35 PM 39.6 °F 36.3 °F 32.0 °F 74% 30.43 in 7.0 mi ESE 4.6 mph - N/A   Clear
10:55 PM 39.9 °F 35.1 °F 32.0 °F 73% 30.43 in 7.0 mi SE 6.9 mph - N/A   Clear
11:15 PM 39.2 °F 35.9 °F 32.0 °F 75% 30.43 in 7.0 mi SE 4.6 mph - N/A   Clear
11:35 PM 35.4 °F - 30.4 °F 82% 30.43 in 7.0 mi Calm Calm - N/A   Clear
11:55 PM 34.9 °F - 30.4 °F 84% 30.43 in 7.0 mi Calm Calm - N/A   Clear